SDM1440 ULMM-UMKK

Flight info

Callsign SDM1440
Flight time 2h 37m
Altitude 37000
Route ASGOR T693 PILAN M856 KUKUM/K0857F380 M856 MOGPI L870 UMODI M60 ATLUM DCT PISIS DCT ARANS/N0450F380 DCT PIDIN DCT PISIM DCT PIRUX DCT PIVAX/N0446F370 DCT GARSO DCT AGONA DCT TURIP
Aircraft A319/M-SDE3FGHIRWY/LB1

Departure

Time 2026-04-22 17:59
Airport Emperor Nicholas II Murmansk Airport (ULMM)

Arrival

Time 2026-04-22 20:37
Airport Khrabrovo Airport (UMKK)
Time Latitude Longitude Altitude Speed Heading
2026-04-22 17:49 68.78446 32.75598 254 ft 0 kts 236°
2026-04-22 17:50 68.78444 32.75590 254 ft 2 kts 236°
2026-04-22 17:51 68.78430 32.75530 254 ft 6 kts 236°
2026-04-22 17:51 68.78402 32.75416 254 ft 8 kts 236°
2026-04-22 17:51 68.78370 32.75280 254 ft 9 kts 237°
2026-04-22 17:51 68.78355 32.75214 254 ft 0 kts 238°
2026-04-22 17:55 68.78346 32.75178 254 ft 5 kts 238°
2026-04-22 17:55 68.78318 32.75056 249 ft 10 kts 237°
2026-04-22 17:56 68.78255 32.74982 255 ft 14 kts 151°
2026-04-22 17:56 68.78153 32.75171 252 ft 21 kts 146°
2026-04-22 17:56 68.78031 32.75397 252 ft 21 kts 146°
2026-04-22 17:56 68.77910 32.75620 254 ft 21 kts 146°
2026-04-22 17:57 68.77787 32.75848 252 ft 22 kts 146°
2026-04-22 17:57 68.77654 32.76093 252 ft 23 kts 146°
2026-04-22 17:57 68.77524 32.76335 254 ft 23 kts 146°
2026-04-22 17:57 68.77390 32.76583 252 ft 24 kts 146°
2026-04-22 17:58 68.77297 32.76823 252 ft 9 kts 129°
2026-04-22 17:58 68.77279 32.76774 252 ft 5 kts 319°
2026-04-22 17:58 68.77310 32.76731 253 ft 0 kts 325°
2026-04-22 17:58 68.77315 32.76723 253 ft 2 kts 325°
2026-04-22 17:59 68.77438 32.76492 254 ft 58 kts 326°
2026-04-22 17:59 68.77980 32.75485 254 ft 127 kts 326°
2026-04-22 17:59 68.78840 32.73875 467 ft 159 kts 326°
2026-04-22 17:59 68.79761 32.72195 1218 ft 157 kts 327°
2026-04-22 18:00 68.80375 32.71052 1775 ft 161 kts 328°
2026-04-22 18:00 68.81720 32.68547 2341 ft 192 kts 329°
2026-04-22 18:00 68.82856 32.66416 3106 ft 201 kts 330°
2026-04-22 18:00 68.84018 32.64220 4100 ft 203 kts 330°
2026-04-22 18:01 68.85198 32.62001 5068 ft 207 kts 330°
2026-04-22 18:01 68.86407 32.59737 5798 ft 214 kts 329°
2026-04-22 18:01 68.87575 32.57175 5975 ft 219 kts 313°
2026-04-22 18:01 68.88053 32.53036 6014 ft 249 kts 275°
2026-04-22 18:02 68.87513 32.48234 6012 ft 274 kts 248°
2026-04-22 18:02 68.86427 32.43796 6006 ft 282 kts 238°
2026-04-22 18:02 68.85172 32.39589 6012 ft 285 kts 233°
2026-04-22 18:02 68.83514 32.36510 6008 ft 295 kts 199°
2026-04-22 18:03 68.81478 32.36289 6007 ft 296 kts 163°
2026-04-22 18:03 68.79682 32.38860 6012 ft 290 kts 138°
2026-04-22 18:03 68.78064 32.42192 6009 ft 292 kts 140°
2026-04-22 18:03 68.76384 32.45361 6008 ft 293 kts 142°
2026-04-22 18:04 68.74685 32.48458 6008 ft 293 kts 142°
2026-04-22 18:04 68.72982 32.51534 6008 ft 293 kts 142°
2026-04-22 18:04 68.71279 32.54619 6006 ft 293 kts 142°
2026-04-22 18:04 68.69581 32.57718 6004 ft 293 kts 142°
2026-04-22 18:05 68.67875 32.60776 5999 ft 294 kts 147°
2026-04-22 18:05 68.65975 32.63015 6207 ft 304 kts 160°
2026-04-22 18:05 68.63974 32.64870 7254 ft 302 kts 158°
2026-04-22 18:05 68.61980 32.66767 8261 ft 305 kts 158°
2026-04-22 18:06 68.59968 32.68708 9210 ft 309 kts 157°
2026-04-22 18:06 68.57921 32.70682 10060 ft 317 kts 157°
2026-04-22 18:06 68.55765 32.72774 10383 ft 341 kts 157°
2026-04-22 18:06 68.53447 32.74948 10649 ft 365 kts 161°
2026-04-22 18:07 68.51767 32.75983 10787 ft 382 kts 169°
2026-04-22 18:07 68.48108 32.76311 11431 ft 401 kts 183°
2026-04-22 18:07 68.45299 32.75945 12161 ft 407 kts 182°
2026-04-22 18:07 68.42448 32.75622 12881 ft 413 kts 182°
2026-04-22 18:08 68.39561 32.75441 13585 ft 418 kts 180°
2026-04-22 18:08 68.36633 32.75455 14197 ft 423 kts 179°
2026-04-22 18:08 68.33666 32.75575 14772 ft 429 kts 178°
2026-04-22 18:08 68.30659 32.75728 15381 ft 435 kts 178°
2026-04-22 18:09 68.27655 32.75867 15970 ft 440 kts 178°
2026-04-22 18:09 68.25578 32.75943 16350 ft 444 kts 178°
2026-04-22 18:09 68.21416 32.76045 17115 ft 451 kts 179°
2026-04-22 18:09 68.18299 32.76086 17694 ft 456 kts 179°
2026-04-22 18:10 68.15111 32.76113 18222 ft 461 kts 179°
2026-04-22 18:10 68.11880 32.76136 18675 ft 467 kts 179°
2026-04-22 18:10 68.08618 32.76166 19114 ft 472 kts 179°
2026-04-22 18:10 68.05314 32.76205 19556 ft 477 kts 179°
2026-04-22 18:11 68.01976 32.76255 19988 ft 482 kts 179°
2026-04-22 18:11 67.98599 32.76317 20395 ft 488 kts 179°
2026-04-22 18:11 67.95187 32.76398 20808 ft 493 kts 178°
2026-04-22 18:11 67.91743 32.76521 21218 ft 498 kts 178°
2026-04-22 18:12 67.89396 32.76620 21491 ft 501 kts 178°
2026-04-22 18:12 67.85902 32.76785 22008 ft 504 kts 178°
2026-04-22 18:12 67.82395 32.76954 22512 ft 505 kts 178°
2026-04-22 18:12 67.78859 32.77109 22924 ft 509 kts 178°
2026-04-22 18:13 67.75303 32.77255 23314 ft 513 kts 178°
2026-04-22 18:13 67.71722 32.77383 23635 ft 517 kts 178°
2026-04-22 18:13 67.68109 32.77506 23966 ft 520 kts 178°
2026-04-22 18:13 67.64531 32.77631 24292 ft 523 kts 178°
2026-04-22 18:14 67.60882 32.77765 24610 ft 526 kts 178°
2026-04-22 18:14 67.57216 32.77902 24868 ft 530 kts 178°
2026-04-22 18:14 67.53511 32.78045 25111 ft 534 kts 178°
2026-04-22 18:14 67.49778 32.78188 25378 ft 538 kts 178°
2026-04-22 18:15 67.46030 32.78331 25673 ft 540 kts 178°
2026-04-22 18:15 67.42266 32.78512 25963 ft 543 kts 177°
2026-04-22 18:15 67.38477 32.78782 26245 ft 546 kts 176°
2026-04-22 18:15 67.34679 32.79121 26520 ft 548 kts 176°
2026-04-22 18:16 67.30856 32.79496 26778 ft 551 kts 176°
2026-04-22 18:16 67.27016 32.79865 27148 ft 552 kts 176°
2026-04-22 18:16 67.23185 32.80210 27603 ft 549 kts 176°
2026-04-22 18:16 67.19371 32.80536 28017 ft 548 kts 176°
2026-04-22 18:17 67.15556 32.80853 28323 ft 550 kts 176°
2026-04-22 18:17 67.11736 32.81163 28653 ft 550 kts 176°
2026-04-22 18:17 67.07901 32.81465 29017 ft 550 kts 177°
2026-04-22 18:17 67.04074 32.81766 29375 ft 550 kts 176°
2026-04-22 18:18 67.00243 32.82070 29750 ft 550 kts 177°
2026-04-22 18:18 66.96424 32.82373 30065 ft 550 kts 177°
2026-04-22 18:18 66.92598 32.82670 30408 ft 549 kts 177°
2026-04-22 18:18 66.88783 32.82967 30745 ft 548 kts 177°
2026-04-22 18:19 66.84975 32.83275 31086 ft 547 kts 177°
2026-04-22 18:19 66.81175 32.83575 31414 ft 546 kts 177°
2026-04-22 18:19 66.77372 32.83870 31664 ft 547 kts 177°
2026-04-22 18:19 66.73562 32.84171 31906 ft 549 kts 176°
2026-04-22 18:20 66.69750 32.84481 32330 ft 546 kts 176°
2026-04-22 18:20 66.65975 32.84824 32873 ft 540 kts 176°
2026-04-22 18:20 66.62234 32.85205 33323 ft 537 kts 176°
2026-04-22 18:20 66.58511 32.85619 33684 ft 535 kts 176°
2026-04-22 18:21 66.54790 32.86056 33989 ft 534 kts 176°
2026-04-22 18:21 66.51086 32.86489 34271 ft 533 kts 176°
2026-04-22 18:21 66.47390 32.86904 34553 ft 532 kts 176°
2026-04-22 18:21 66.43698 32.87293 34815 ft 531 kts 176°
2026-04-22 18:22 66.40007 32.87659 35033 ft 530 kts 176°
2026-04-22 18:22 66.36322 32.88001 35221 ft 530 kts 177°
2026-04-22 18:22 66.32636 32.88271 35434 ft 530 kts 178°
2026-04-22 18:22 66.28946 32.88478 35651 ft 529 kts 178°
2026-04-22 18:23 66.25268 32.88655 35872 ft 529 kts 178°
2026-04-22 18:23 66.21588 32.88832 36090 ft 528 kts 178°
2026-04-22 18:23 66.17920 32.89030 36303 ft 527 kts 178°
2026-04-22 18:24 66.10612 32.89466 36688 ft 524 kts 178°
2026-04-22 18:24 66.06973 32.89706 36709 ft 523 kts 178°
2026-04-22 18:25 65.96040 32.90391 36707 ft 526 kts 178°
2026-04-22 18:25 65.88725 32.90823 36695 ft 526 kts 178°
2026-04-22 18:26 65.77786 32.91495 36696 ft 526 kts 178°
2026-04-22 18:26 65.70413 32.91668 36705 ft 527 kts 180°
2026-04-22 18:27 65.63130 32.91208 36658 ft 527 kts 182°
2026-04-22 18:27 65.55789 32.90616 36721 ft 528 kts 181°
2026-04-22 18:28 65.48446 32.90174 36717 ft 528 kts 181°
2026-04-22 18:28 65.41109 32.89834 36702 ft 527 kts 181°
2026-04-22 18:29 65.33777 32.89522 36699 ft 527 kts 181°
2026-04-22 18:29 65.26447 32.89170 36679 ft 527 kts 181°
2026-04-22 18:30 65.15441 32.88625 36658 ft 528 kts 181°
2026-04-22 18:31 65.08088 32.88253 36667 ft 529 kts 181°
2026-04-22 18:31 65.00723 32.87887 36673 ft 529 kts 181°
2026-04-22 18:32 64.93379 32.87534 36680 ft 526 kts 181°
2026-04-22 18:32 64.86076 32.87190 36650 ft 525 kts 181°
2026-04-22 18:33 64.78770 32.86861 36655 ft 525 kts 181°
2026-04-22 18:33 64.71455 32.86511 36647 ft 526 kts 181°
2026-04-22 18:34 64.64133 32.86155 36655 ft 526 kts 181°
2026-04-22 18:34 64.56803 32.85809 36662 ft 527 kts 181°
2026-04-22 18:35 64.49473 32.85450 36617 ft 527 kts 181°
2026-04-22 18:35 64.42131 32.85097 36626 ft 528 kts 181°
2026-04-22 18:36 64.34770 32.84781 36636 ft 529 kts 181°
2026-04-22 18:36 64.27406 32.84477 36645 ft 530 kts 181°
2026-04-22 18:37 64.20035 32.84136 36647 ft 530 kts 181°
2026-04-22 18:37 64.13903 32.83838 36650 ft 530 kts 181°
2026-04-22 18:38 64.05279 32.83449 36655 ft 530 kts 181°
2026-04-22 18:38 63.97899 32.83114 36657 ft 530 kts 181°
2026-04-22 18:39 63.86826 32.82604 36661 ft 530 kts 181°
2026-04-22 18:39 63.79450 32.82279 36664 ft 530 kts 181°
2026-04-22 18:40 63.72139 32.81965 36660 ft 528 kts 182°
2026-04-22 18:40 63.64801 32.81124 36667 ft 528 kts 185°
2026-04-22 18:41 63.57483 32.79836 36663 ft 527 kts 185°
2026-04-22 18:41 63.50163 32.78621 36653 ft 527 kts 184°
2026-04-22 18:42 63.42835 32.77735 36623 ft 528 kts 183°
2026-04-22 18:42 63.35489 32.76979 36632 ft 529 kts 183°
2026-04-22 18:43 63.28137 32.76167 36622 ft 529 kts 184°
2026-04-22 18:43 63.20779 32.75304 36630 ft 530 kts 184°
2026-04-22 18:44 63.13423 32.74436 36667 ft 529 kts 184°
2026-04-22 18:44 63.06079 32.73600 36622 ft 528 kts 184°
2026-04-22 18:45 62.98743 32.72782 36628 ft 528 kts 182°
2026-04-22 18:45 62.91396 32.72451 36635 ft 528 kts 180°
2026-04-22 18:46 62.84043 32.72466 36623 ft 528 kts 180°
2026-04-22 18:46 62.76698 32.72296 36628 ft 528 kts 182°
2026-04-22 18:47 62.69350 32.71731 36600 ft 528 kts 183°
2026-04-22 18:47 62.61995 32.71091 36608 ft 529 kts 182°
2026-04-22 18:48 62.54642 32.70566 36637 ft 528 kts 182°
2026-04-22 18:48 62.47311 32.70135 36635 ft 527 kts 182°
2026-04-22 18:49 62.39989 32.69686 36628 ft 526 kts 182°
2026-04-22 18:49 62.32682 32.69190 36590 ft 526 kts 182°
2026-04-22 18:50 62.25422 32.68700 36596 ft 526 kts 182°
2026-04-22 18:50 62.18107 32.68229 36600 ft 526 kts 182°
2026-04-22 18:51 62.10790 32.67769 36594 ft 526 kts 182°
2026-04-22 18:51 62.03475 32.67311 36546 ft 526 kts 182°
2026-04-22 18:52 61.96159 32.66832 36594 ft 525 kts 182°
2026-04-22 18:52 61.88863 32.66367 36582 ft 525 kts 182°
2026-04-22 18:53 61.81562 32.65885 36581 ft 524 kts 182°
2026-04-22 18:53 61.74277 32.65333 36576 ft 524 kts 183°
2026-04-22 18:54 61.66995 32.64758 36520 ft 523 kts 183°
2026-04-22 18:54 61.59717 32.64185 36533 ft 524 kts 183°
2026-04-22 18:55 61.52432 32.63644 36531 ft 524 kts 182°
2026-04-22 18:55 61.45144 32.63130 36555 ft 524 kts 183°
2026-04-22 18:56 61.37837 32.62595 36552 ft 523 kts 183°
2026-04-22 18:56 61.31799 32.62144 36519 ft 522 kts 183°
2026-04-22 18:57 61.24538 32.61578 36527 ft 522 kts 184°
2026-04-22 18:57 61.17295 32.60646 36524 ft 522 kts 185°
2026-04-22 18:58 61.10052 32.59513 36528 ft 522 kts 185°
2026-04-22 18:58 61.02810 32.58451 36533 ft 522 kts 185°
2026-04-22 18:59 60.95567 32.57496 36491 ft 522 kts 185°
2026-04-22 18:59 60.88315 32.56498 36502 ft 522 kts 185°
2026-04-22 19:00 60.81077 32.55435 36532 ft 521 kts 186°
2026-04-22 19:00 60.73849 32.54352 36520 ft 519 kts 188°
2026-04-22 19:01 60.66861 32.51072 36518 ft 515 kts 199°
2026-04-22 19:01 60.59977 32.47068 36515 ft 514 kts 199°
2026-04-22 19:02 60.53089 32.43115 36513 ft 514 kts 198°
2026-04-22 19:02 60.46197 32.39179 36515 ft 514 kts 198°
2026-04-22 19:03 60.39311 32.35241 36468 ft 514 kts 199°
2026-04-22 19:03 60.32422 32.31311 36479 ft 515 kts 199°
2026-04-22 19:04 60.25862 32.26119 36492 ft 506 kts 216°
2026-04-22 19:04 60.23037 32.22014 36494 ft 498 kts 227°
2026-04-22 19:04 60.20649 32.17051 36494 ft 489 kts 237°
2026-04-22 19:05 60.17342 32.05455 36496 ft 473 kts 254°
2026-04-22 19:05 60.14820 31.93214 36474 ft 475 kts 254°
2026-04-22 19:06 60.12244 31.81008 36499 ft 475 kts 253°
2026-04-22 19:07 60.08386 31.62706 36520 ft 475 kts 254°
2026-04-22 19:07 60.05812 31.50508 36543 ft 476 kts 253°
2026-04-22 19:08 60.03471 31.38205 36544 ft 471 kts 259°
2026-04-22 19:08 60.01467 31.25737 36512 ft 471 kts 259°
2026-04-22 19:09 59.99440 31.13264 36539 ft 472 kts 259°
2026-04-22 19:09 59.97392 31.00802 36549 ft 473 kts 259°
2026-04-22 19:10 59.95376 30.88637 36560 ft 473 kts 259°
2026-04-22 19:10 59.93308 30.76184 36570 ft 473 kts 259°
2026-04-22 19:11 59.91228 30.63754 36583 ft 473 kts 259°
2026-04-22 19:11 59.89134 30.51334 36591 ft 473 kts 259°
2026-04-22 19:12 59.87043 30.38912 36566 ft 473 kts 259°
2026-04-22 19:12 59.84936 30.26513 36565 ft 473 kts 260°
2026-04-22 19:13 59.82808 30.14119 36591 ft 474 kts 259°
2026-04-22 19:13 59.80665 30.01725 36597 ft 474 kts 259°
2026-04-22 19:14 59.78521 29.89343 36612 ft 474 kts 259°
2026-04-22 19:14 59.76379 29.77048 36614 ft 475 kts 259°
2026-04-22 19:15 59.74552 29.66690 36569 ft 475 kts 259°
2026-04-22 19:15 59.72453 29.52240 36616 ft 459 kts 272°
2026-04-22 19:15 59.72303 29.46025 36617 ft 447 kts 281°
2026-04-22 19:16 59.72479 29.39902 36573 ft 445 kts 283°
2026-04-22 19:16 59.72826 29.27656 36595 ft 445 kts 282°
2026-04-22 19:17 59.73142 29.15403 36623 ft 445 kts 282°
2026-04-22 19:17 59.73440 29.03139 36629 ft 445 kts 282°
2026-04-22 19:18 59.73756 28.90888 36640 ft 445 kts 283°
2026-04-22 19:18 59.74094 28.78647 36645 ft 445 kts 282°
2026-04-22 19:19 59.74412 28.66411 36614 ft 444 kts 283°
2026-04-22 19:19 59.74715 28.54186 36657 ft 443 kts 283°
2026-04-22 19:20 59.75005 28.41996 36666 ft 442 kts 283°
2026-04-22 19:20 59.75282 28.29845 36642 ft 441 kts 283°
2026-04-22 19:21 59.75543 28.17720 36669 ft 439 kts 283°
2026-04-22 19:21 59.75795 28.05629 36682 ft 438 kts 283°
2026-04-22 19:22 59.76039 27.93550 36632 ft 437 kts 283°
2026-04-22 19:22 59.76263 27.81530 36661 ft 436 kts 283°
2026-04-22 19:23 59.76967 27.69830 36666 ft 415 kts 297°
2026-04-22 19:23 59.78020 27.64589 36668 ft 403 kts 306°
2026-04-22 19:23 59.79483 27.59945 36670 ft 392 kts 315°
2026-04-22 19:24 59.82952 27.51674 36684 ft 390 kts 317°
2026-04-22 19:24 59.86412 27.43366 36685 ft 390 kts 317°
2026-04-22 19:25 59.89872 27.35039 36637 ft 391 kts 317°
2026-04-22 19:25 59.93351 27.26656 36696 ft 394 kts 317°
2026-04-22 19:26 59.96838 27.18225 36700 ft 394 kts 317°
2026-04-22 19:26 60.00314 27.09781 36701 ft 393 kts 317°
2026-04-22 19:27 60.03296 27.00478 36698 ft 413 kts 299°
2026-04-22 19:27 60.03978 26.94794 36709 ft 430 kts 286°
2026-04-22 19:27 60.03940 26.88695 36706 ft 450 kts 271°
2026-04-22 19:28 60.02636 26.76272 36703 ft 457 kts 268°
2026-04-22 19:28 60.01249 26.63847 36702 ft 458 kts 268°
2026-04-22 19:29 59.99848 26.51409 36717 ft 459 kts 268°
2026-04-22 19:29 59.98457 26.38965 36722 ft 459 kts 268°
2026-04-22 19:30 59.97296 26.28622 36732 ft 460 kts 268°
2026-04-22 19:30 59.95640 26.14072 36736 ft 460 kts 268°
2026-04-22 19:31 59.94203 26.01715 36704 ft 461 kts 268°
2026-04-22 19:31 59.92748 25.89268 36752 ft 462 kts 268°
2026-04-22 19:32 59.91283 25.76748 36765 ft 464 kts 267°
2026-04-22 19:32 59.89804 25.64240 36768 ft 464 kts 267°
2026-04-22 19:33 59.88308 25.51740 36779 ft 463 kts 267°
2026-04-22 19:33 59.86801 25.39284 36773 ft 463 kts 267°
2026-04-22 19:34 59.85288 25.26832 36786 ft 463 kts 267°
2026-04-22 19:34 59.83763 25.14378 36787 ft 463 kts 267°
2026-04-22 19:35 59.82226 25.01951 36751 ft 463 kts 266°
2026-04-22 19:35 59.80929 24.91533 36782 ft 464 kts 266°
2026-04-22 19:36 59.79109 24.77082 36796 ft 464 kts 266°
2026-04-22 19:36 59.77526 24.64652 36801 ft 465 kts 266°
2026-04-22 19:37 59.75937 24.52220 36816 ft 465 kts 266°
2026-04-22 19:37 59.74301 24.39809 36819 ft 467 kts 265°
2026-04-22 19:38 59.72444 24.27441 36778 ft 469 kts 263°
2026-04-22 19:38 59.70492 24.15145 36824 ft 467 kts 263°
2026-04-22 19:39 59.68583 24.02888 36814 ft 465 kts 263°
2026-04-22 19:39 59.66706 23.90651 36844 ft 465 kts 263°
2026-04-22 19:40 59.64818 23.78430 36849 ft 465 kts 263°
2026-04-22 19:40 59.62910 23.66228 36850 ft 465 kts 263°
2026-04-22 19:41 59.60986 23.54028 36870 ft 465 kts 263°
2026-04-22 19:41 59.59053 23.41863 36798 ft 465 kts 262°
2026-04-22 19:42 59.57432 23.31748 36849 ft 465 kts 262°
2026-04-22 19:42 59.55468 23.19576 36877 ft 466 kts 262°
2026-04-22 19:43 59.51446 23.01769 36888 ft 476 kts 254°
2026-04-22 19:43 59.48602 22.89999 36889 ft 476 kts 254°
2026-04-22 19:44 59.45749 22.78236 36903 ft 476 kts 254°
2026-04-22 19:44 59.42889 22.66502 36901 ft 476 kts 254°
2026-04-22 19:45 59.40015 22.54766 36904 ft 476 kts 254°
2026-04-22 19:45 59.37154 22.43159 36894 ft 476 kts 253°
2026-04-22 19:46 59.34244 22.31417 36913 ft 476 kts 253°
2026-04-22 19:46 59.31358 22.19847 36925 ft 476 kts 253°
2026-04-22 19:47 59.28433 22.08141 36935 ft 475 kts 253°
2026-04-22 19:47 59.25536 21.96618 36934 ft 475 kts 252°
2026-04-22 19:48 59.22606 21.85036 36937 ft 476 kts 252°
2026-04-22 19:48 59.19667 21.73475 36931 ft 475 kts 252°
2026-04-22 19:49 59.16720 21.61948 36877 ft 475 kts 251°
2026-04-22 19:49 59.13763 21.50435 36921 ft 476 kts 251°
2026-04-22 19:50 59.10795 21.38926 36942 ft 476 kts 251°
2026-04-22 19:50 59.07744 21.27485 36947 ft 481 kts 245°
2026-04-22 19:51 59.05722 21.22222 36949 ft 492 kts 234°
2026-04-22 19:51 59.03193 21.17650 36949 ft 502 kts 223°
2026-04-22 19:51 59.00223 21.14003 36951 ft 510 kts 210°
2026-04-22 19:51 58.96920 21.11421 36933 ft 515 kts 201°
2026-04-22 19:52 58.90093 21.07062 36932 ft 517 kts 201°
2026-04-22 19:52 58.83254 21.02684 36935 ft 519 kts 201°
2026-04-22 19:53 58.76395 20.98294 36943 ft 520 kts 201°
2026-04-22 19:53 58.69518 20.93909 36952 ft 521 kts 201°
2026-04-22 19:54 58.62618 20.89544 36947 ft 523 kts 201°
2026-04-22 19:54 58.55695 20.85202 36965 ft 524 kts 201°
2026-04-22 19:55 58.48761 20.80866 36960 ft 525 kts 201°
2026-04-22 19:55 58.41821 20.76523 36958 ft 525 kts 200°
2026-04-22 19:56 58.34860 20.72177 36968 ft 527 kts 200°
2026-04-22 19:56 58.27884 20.67863 36972 ft 528 kts 200°
2026-04-22 19:57 58.20895 20.63569 36942 ft 528 kts 200°
2026-04-22 19:57 58.13927 20.59279 36993 ft 526 kts 199°
2026-04-22 19:58 58.06972 20.55010 36999 ft 525 kts 199°
2026-04-22 19:58 58.00012 20.50775 37011 ft 525 kts 199°
2026-04-22 20:00 57.75738 20.36105 37018 ft 523 kts 198°
2026-04-22 20:01 57.68809 20.31961 37027 ft 523 kts 198°
2026-04-22 20:01 57.61884 20.27846 37020 ft 523 kts 197°
2026-04-22 20:02 57.54950 20.23735 37013 ft 523 kts 198°
2026-04-22 20:02 57.48022 20.19626 37037 ft 523 kts 198°
2026-04-22 20:03 57.41080 20.15537 37020 ft 523 kts 198°
2026-04-22 20:03 57.34141 20.11471 37027 ft 523 kts 197°
2026-04-22 20:04 57.27213 20.07414 37036 ft 522 kts 197°
2026-04-22 20:04 57.20288 20.03378 37038 ft 522 kts 197°
2026-04-22 20:05 57.13362 19.99373 37041 ft 522 kts 197°
2026-04-22 20:05 57.06430 19.95380 37048 ft 522 kts 197°
2026-04-22 20:06 56.99360 19.92636 37040 ft 519 kts 181°
2026-04-22 20:06 56.92211 19.93211 37036 ft 513 kts 170°
2026-04-22 20:07 56.85105 19.94620 37048 ft 513 kts 170°
2026-04-22 20:07 56.78059 19.95997 37064 ft 512 kts 170°
2026-04-22 20:08 56.70972 19.97373 37067 ft 512 kts 170°
2026-04-22 20:08 56.67440 19.98067 36864 ft 511 kts 170°
2026-04-22 20:08 56.63907 19.98758 36613 ft 510 kts 170°
2026-04-22 20:08 56.60377 19.99444 36352 ft 510 kts 170°
2026-04-22 20:09 56.56848 20.00132 36077 ft 509 kts 170°
2026-04-22 20:09 56.53333 20.00813 35827 ft 507 kts 170°
2026-04-22 20:09 56.49831 20.01487 35581 ft 506 kts 170°
2026-04-22 20:09 56.46325 20.02165 35368 ft 508 kts 170°
2026-04-22 20:10 56.42806 20.02848 35118 ft 510 kts 170°
2026-04-22 20:10 56.39273 20.03534 34879 ft 510 kts 170°
2026-04-22 20:10 56.35775 20.04210 34632 ft 500 kts 170°
2026-04-22 20:10 56.32347 20.04862 34385 ft 490 kts 170°
2026-04-22 20:11 56.28992 20.05492 34139 ft 481 kts 171°
2026-04-22 20:11 56.25698 20.06111 33879 ft 473 kts 171°
2026-04-22 20:11 56.22437 20.06726 33596 ft 469 kts 171°
2026-04-22 20:11 56.19217 20.07338 33327 ft 466 kts 171°
2026-04-22 20:12 56.16004 20.08002 33079 ft 462 kts 166°
2026-04-22 20:12 56.12906 20.09328 32808 ft 454 kts 157°
2026-04-22 20:12 56.10943 20.10580 32631 ft 452 kts 155°
2026-04-22 20:12 56.07002 20.13134 32282 ft 449 kts 155°
2026-04-22 20:13 56.04068 20.15019 32022 ft 448 kts 155°
2026-04-22 20:13 56.01139 20.16888 31761 ft 446 kts 155°
2026-04-22 20:13 55.98224 20.18742 31513 ft 444 kts 156°
2026-04-22 20:13 55.95321 20.20587 31292 ft 441 kts 156°
2026-04-22 20:14 55.92433 20.22424 31042 ft 441 kts 156°
2026-04-22 20:14 55.89548 20.24260 30795 ft 439 kts 156°
2026-04-22 20:14 55.86673 20.26088 30548 ft 438 kts 156°
2026-04-22 20:14 55.83812 20.27904 30306 ft 436 kts 156°
2026-04-22 20:15 55.80956 20.29713 30061 ft 435 kts 156°
2026-04-22 20:15 55.78113 20.31511 29772 ft 433 kts 156°
2026-04-22 20:15 55.75281 20.33301 29492 ft 431 kts 156°
2026-04-22 20:15 55.72448 20.35089 28683 ft 437 kts 156°
2026-04-22 20:16 55.69572 20.36898 28168 ft 435 kts 157°
2026-04-22 20:16 55.66741 20.38670 27834 ft 428 kts 156°
2026-04-22 20:16 55.63948 20.40421 27478 ft 424 kts 156°
2026-04-22 20:16 55.61182 20.42158 27067 ft 420 kts 156°
2026-04-22 20:17 55.58432 20.43883 26641 ft 417 kts 156°
2026-04-22 20:17 55.55704 20.45591 26214 ft 415 kts 156°
2026-04-22 20:17 55.52996 20.47283 25819 ft 412 kts 157°
2026-04-22 20:17 55.50295 20.48965 25359 ft 411 kts 157°
2026-04-22 20:18 55.47603 20.50630 24919 ft 409 kts 157°
2026-04-22 20:18 55.44925 20.52281 24493 ft 406 kts 157°
2026-04-22 20:18 55.42264 20.53926 24058 ft 404 kts 157°
2026-04-22 20:18 55.39549 20.55205 23630 ft 405 kts 168°
2026-04-22 20:19 55.36745 20.55603 23133 ft 404 kts 176°
2026-04-22 20:19 55.33950 20.55799 22691 ft 400 kts 176°
2026-04-22 20:19 55.31174 20.55999 22251 ft 397 kts 176°
2026-04-22 20:19 55.28426 20.56220 21809 ft 395 kts 175°
2026-04-22 20:20 55.25696 20.56473 21231 ft 390 kts 175°
2026-04-22 20:20 55.23001 20.56740 20550 ft 387 kts 175°
2026-04-22 20:20 55.20322 20.57013 19893 ft 384 kts 175°
2026-04-22 20:20 55.17670 20.57280 19262 ft 381 kts 175°
2026-04-22 20:21 55.15035 20.57539 18648 ft 377 kts 176°
2026-04-22 20:21 55.12423 20.57814 18007 ft 374 kts 173°
2026-04-22 20:21 55.09943 20.58917 17370 ft 365 kts 152°
2026-04-22 20:21 55.07835 20.61231 16742 ft 353 kts 133°
2026-04-22 20:22 55.06282 20.64412 16303 ft 336 kts 118°
2026-04-22 20:22 55.05000 20.67693 16191 ft 318 kts 119°
2026-04-22 20:22 55.03766 20.70780 16063 ft 302 kts 119°
2026-04-22 20:22 55.02974 20.72751 15773 ft 300 kts 119°
2026-04-22 20:23 55.01338 20.76858 14701 ft 316 kts 120°
2026-04-22 20:23 55.00070 20.80056 13886 ft 326 kts 120°
2026-04-22 20:23 54.98762 20.83349 12950 ft 335 kts 121°
2026-04-22 20:23 54.97879 20.85567 12331 ft 339 kts 121°
2026-04-22 20:24 54.96123 20.90185 11096 ft 342 kts 111°
2026-04-22 20:24 54.95578 20.92735 10503 ft 337 kts 97°
2026-04-22 20:24 54.95423 20.96711 9657 ft 324 kts 76°
2026-04-22 20:24 54.96003 21.00309 9258 ft 297 kts 58°
2026-04-22 20:25 54.97490 21.03975 8724 ft 267 kts 36°
2026-04-22 20:25 54.98938 21.05809 8285 ft 250 kts 22°
2026-04-22 20:25 55.00509 21.06849 7884 ft 235 kts
2026-04-22 20:25 55.02073 21.07178 7599 ft 217 kts 356°
2026-04-22 20:26 55.03500 21.06926 7446 ft 198 kts 346°
2026-04-22 20:26 55.04780 21.06218 7298 ft 189 kts 336°
2026-04-22 20:26 55.05917 21.05123 7150 ft 186 kts 327°
2026-04-22 20:26 55.06909 21.03674 6996 ft 187 kts 317°
2026-04-22 20:27 55.07745 21.01929 6857 ft 188 kts 311°
2026-04-22 20:27 55.08264 21.00672 6757 ft 188 kts 309°
2026-04-22 20:27 55.09006 20.98796 6606 ft 188 kts 309°
2026-04-22 20:27 55.09741 20.96915 6461 ft 187 kts 309°
2026-04-22 20:28 55.10474 20.95046 6304 ft 186 kts 309°
2026-04-22 20:28 55.11207 20.93186 6146 ft 186 kts 309°
2026-04-22 20:28 55.11940 20.91326 5991 ft 185 kts 309°
2026-04-22 20:28 55.12661 20.89498 5834 ft 185 kts 310°
2026-04-22 20:29 55.13372 20.87585 5678 ft 186 kts 305°
2026-04-22 20:29 55.13906 20.85536 5513 ft 190 kts 296°
2026-04-22 20:29 55.14214 20.83267 5356 ft 195 kts 286°
2026-04-22 20:29 55.14250 20.80861 5203 ft 201 kts 275°
2026-04-22 20:30 55.13990 20.78420 5053 ft 209 kts 263°
2026-04-22 20:30 55.13413 20.76030 4902 ft 218 kts 250°
2026-04-22 20:30 55.12508 20.73854 4746 ft 227 kts 236°
2026-04-22 20:30 55.11290 20.72027 4583 ft 235 kts 221°
2026-04-22 20:31 55.09808 20.70719 4426 ft 242 kts 205°
2026-04-22 20:31 55.08151 20.70093 4301 ft 247 kts 187°
2026-04-22 20:31 55.06428 20.70220 4174 ft 249 kts 170°
2026-04-22 20:31 55.04782 20.71095 4069 ft 247 kts 153°
2026-04-22 20:32 55.03331 20.72652 3967 ft 243 kts 136°
2026-04-22 20:32 55.02158 20.74722 3863 ft 238 kts 123°
2026-04-22 20:32 55.01165 20.77004 3762 ft 236 kts 118°
2026-04-22 20:32 55.00245 20.79316 3637 ft 228 kts 116°
2026-04-22 20:33 54.99355 20.81519 3542 ft 219 kts 122°
2026-04-22 20:33 54.98122 20.83032 3389 ft 218 kts 158°
2026-04-22 20:33 54.96639 20.83287 3195 ft 214 kts 192°
2026-04-22 20:33 54.95326 20.82315 2939 ft 201 kts 225°
2026-04-22 20:34 54.94490 20.80526 2685 ft 184 kts 254°
2026-04-22 20:34 54.93975 20.78513 2419 ft 183 kts 256°
2026-04-22 20:34 54.93457 20.76498 2109 ft 182 kts 254°
2026-04-22 20:34 54.92942 20.74512 1752 ft 179 kts 254°
2026-04-22 20:35 54.92440 20.72576 1420 ft 171 kts 253°
2026-04-22 20:35 54.91965 20.70739 1176 ft 160 kts 252°
2026-04-22 20:35 54.91533 20.69068 950 ft 145 kts 252°
2026-04-22 20:35 54.91132 20.67505 747 ft 139 kts 251°
2026-04-22 20:36 54.90744 20.65998 565 ft 135 kts 250°
2026-04-22 20:36 54.90366 20.64529 376 ft 133 kts 249°
2026-04-22 20:36 54.89995 20.63078 193 ft 131 kts 249°
2026-04-22 20:36 54.89625 20.61643 32 ft 126 kts 249°
2026-04-22 20:37 54.89324 20.60460 23 ft 85 kts 245°
2026-04-22 20:37 54.89153 20.59801 23 ft 35 kts 246°
2026-04-22 20:37 54.89083 20.59531 26 ft 22 kts 245°
2026-04-22 20:37 54.89017 20.59294 25 ft 22 kts 239°
2026-04-22 20:38 54.88911 20.59114 25 ft 18 kts 208°
2026-04-22 20:38 54.88796 20.59017 28 ft 17 kts 206°
2026-04-22 20:38 54.88716 20.58930 26 ft 14 kts 231°
2026-04-22 20:38 54.88681 20.58787 26 ft 9 kts 247°
2026-04-22 20:39 54.88629 20.58761 27 ft 10 kts 155°
2026-04-22 20:39 54.88562 20.58814 27 ft 11 kts 156°
2026-04-22 20:39 54.88508 20.58755 27 ft 12 kts 248°
2026-04-22 20:39 54.88475 20.58619 27 ft 13 kts 246°
2026-04-22 20:40 54.88446 20.58515 27 ft 7 kts 240°
2026-04-22 20:40 54.88409 20.58503 27 ft 4 kts 156°
2026-04-22 20:40 54.88390 20.58519 27 ft 3 kts 155°
2026-04-22 20:40 54.88384 20.58525 27 ft 0 kts 155°